FW8061 Weather Reports


Display with metric or nautical units.
time (UTC)temp
F
wind
direction
speed
MPH
gust
MPH
rain 1hr
in
rain 24hr
in
rain mn
in
humidity
%
barometer
mb
20260503013019 46 321 3.0 6.0 0.00 0.00 0.00 70 1012.7
20260503012019 0 300 3.0 4.0 0.00 0.00 0.00
20260503011040 47 308 2.0 3.0 0.00 0.00 0.00 70 1012.4
20260503010020 47 323 2.0 5.0 0.00 0.00 0.00 68 1012.3
20260503005020 47 323 3.0 5.0 0.00 0.00 0.00 67 1012.2
20260503004017 47 318 3.0 5.0 0.00 0.00 0.00 65 1012.2
20260503003020 47 293 3.0 4.0 0.00 0.00 0.00 64 1012.2
20260503002017 47 314 3.0 8.0 0.00 0.00 0.00 66 1012.1
20260503001046 47 298 3.0 5.0 0.00 0.00 0.00 66 1011.9
20260503000021 48 318 3.0 7.0 0.00 0.00 0.00 63 1011.9
20260502235018 48 317 2.0 4.0 0.00 0.00 0.00 63 1011.8
20260502234018 48 308 3.0 6.0 0.00 0.00 0.00 64 1011.8
20260502233022 48 234 2.0 4.0 0.00 0.00 0.00 68 1011.8
20260502232018 48 219 2.0 5.0 0.00 0.00 0.00 68 1011.7
20260502231018 48 228 2.0 5.0 0.00 0.00 0.00 66 1011.7
20260502230018 48 231 2.0 5.0 0.00 0.00 0.00 65 1011.6
20260502225020 48 304 3.0 6.0 0.00 0.00 0.00 65 1011.5
20260502224019 49 286 2.0 8.0 0.00 0.00 0.00 65 1011.5
20260502223019 49 306 3.0 6.0 0.00 0.00 0.00 65 1011.6
20260502222040 49 297 2.0 7.0 0.00 0.00 0.00 66 1011.6
20260502221019 48 228 2.0 5.0 0.00 0.00 0.00 66 1011.6
20260502220016 48 205 3.0 5.0 0.00 0.00 0.00 70 1011.7
20260502215019 47 213 3.0 6.0 0.00 0.00 0.00 71 1011.7
20260502214020 47 211 2.0 5.0 0.00 0.00 0.00 73 1011.7
20260502213018 47 210 3.0 7.0 0.00 0.00 0.00 74 1011.8
20260502212020 47 204 2.0 5.0 0.00 0.00 0.00 76 1011.9
20260502211042 46 197 3.0 5.0 0.00 0.00 0.00 77 1011.9
20260502210017 46 182 2.0 4.0 0.00 0.00 0.00 80 1011.9
20260502205021 46 180 3.0 7.0 0.00 0.00 0.00 79 1011.9
20260502204018 47 180 2.0 5.0 0.00 0.00 0.00 80 1011.9
20260502203018 46 188 3.0 6.0 0.00 0.00 0.00 85 1011.8
20260502202019 45 175 2.0 6.0 0.00 0.00 0.00 84 1011.9
20260502201100 45 172 3.0 8.0 0.00 0.00 0.00 84 1012.0
20260502200019 45 154 2.0 5.0 0.00 0.00 0.00 83 1012.0
20260502195019 45 168 2.0 7.0 0.00 0.00 0.00 80 1012.0
20260502194019 46 185 3.0 5.0 0.00 0.00 0.00 83 1012.0
20260502193019 45 189 3.0 5.0 0.00 0.00 0.00 82 1012.0
20260502192020 46 183 3.0 6.0 0.00 0.00 0.00 85 1012.1
20260502191101 44 173 2.0 4.0 0.00 0.00 0.00 87 1012.1
20260502190019 44 167 2.0 5.0 0.00 0.00 0.00 87 1012.2
20260502185021 44 187 1.0 3.0 0.00 0.00 0.00 90 1012.3
20260502184020 43 320 1.0 3.0 0.00 0.00 0.00 91 1012.3
20260502183020 43 341 3.0 7.0 0.00 0.00 0.00 89 1012.3
20260502182017 45 323 5.0 10.0 0.00 0.00 0.00 85 1012.3
20260502181020 48 280 3.0 8.0 0.00 0.00 0.00 73 1011.9
20260502164039 46 317 1.0 2.0 0.00 0.00 0.00 76 1012.4
20260502163020 47 349 1.0 3.0 0.00 0.00 0.00 76 1012.4
20260502162019 46 298 1.0 3.0 0.00 0.00 0.00 77 1012.5
20260502161021 46 269 1.0 3.0 0.00 0.00 0.00 77 1012.6
20260502152038 43 168 1.0 4.0 0.00 0.00 0.00 82 1013.1
20260502151020 42 329 3.0 5.0 0.00 0.00 0.00 84 1013.2
20260502123041 39 350 1.0 2.0 0.00 0.00 0.00 87 1013.7
20260502122022 39 324 1.0 2.0 0.00 0.00 0.00 86 1013.7
20260502121021 39 357 2.0 3.0 0.00 0.00 0.00 86 1013.6
20260502115021 39 237 1.0 2.0 0.00 0.00 0.00 85 1013.6
20260502114121 39 315 1.0 2.0 0.00 0.00 0.00 85 1013.5
20260502113022 39 348 1.0 2.0 0.00 0.00 0.00 84 1013.4
20260502112025 39 346 2.0 2.0 0.00 0.00 0.00 84 1013.4
20260502111022 39 355 2.0 3.0 0.00 0.00 0.00 82 1013.3
20260502110022 39 351 2.0 3.0 0.00 0.00 0.00 81 1013.3
20260502105022 40 350 2.0 3.0 0.00 0.00 0.00 82 1013.3
20260502104022 40 346 2.0 2.0 0.00 0.00 0.00 81 1013.2
20260502103042 40 352 2.0 3.0 0.00 0.00 0.00 83 1013.2
20260502102023 40 349 2.0 2.0 0.00 0.00 0.00 82 1013.1
20260502101022 40 353 2.0 2.0 0.00 0.00 0.00 80 1013.0
20260502091023 40 234 1.0 1.0 0.00 0.00 0.00 79 1012.8
20260502071043 42 320 1.0 2.0 0.00 0.00 0.00 73 1012.4
20260502070023 43 271 1.0 2.0 0.00 0.00 0.00 72 1012.2
20260502065024 43 343 2.0 3.0 0.00 0.00 0.00 72 1012.1
20260502064024 44 333 2.0 3.0 0.00 0.00 0.00 71 1012.1
20260502063106 45 334 1.0 3.0 0.00 0.00 0.00 70 1012.0
20260502062025 45 350 3.0 4.0 0.00 0.00 0.00 67 1012.0
20260502061024 45 348 1.0 2.0 0.00 0.00 0.00 67 1011.9
20260502060025 45 342 0.0 2.0 0.00 0.00 0.00 68 1011.9
20260502055047 46 343 1.0 2.0 0.00 0.00 0.00 65 1012.0
20260502054027 46 347 2.0 2.0 0.00 0.00 0.00 64 1012.0
20260502053025 46 1 2.0 3.0 0.00 0.00 0.00 63 1012.0
20260502052025 47 354 2.0 4.0 0.00 0.00 0.00 64 1012.0
20260502051027 47 350 2.0 4.0 0.00 0.00 0.00 61 1011.9
20260502050025 47 307 1.0 3.0 0.00 0.00 0.00 59 1011.8
20260502045027 47 320 1.0 3.0 0.00 0.00 0.00 60 1011.8
20260502044026 46 219 2.0 2.0 0.00 0.00 0.00 60 1011.8
20260502043026 46 260 0.0 1.0 0.00 0.00 0.00 60 1011.8
20260502042047 46 311 1.0 2.0 0.00 0.00 0.00 60 1011.8
20260502041027 46 284 1.0 2.0 0.00 0.00 0.00 60 1011.8
20260502040027 46 233 1.0 2.0 0.00 0.00 0.00 60 1011.8
20260502035027 46 305 1.0 1.0 0.00 0.00 0.00 60 1011.8
20260502034030 46 307 1.0 2.0 0.00 0.00 0.00 61 1011.7
20260502033038 45 316 1.0 2.0 0.00 0.00 0.00 61 1011.7
20260502032020 45 222 1.0 2.0 0.00 0.00 0.00 62 1011.8
20260502031018 45 327 0.0 2.0 0.00 0.00 0.00 61 1011.8
20260502030038 46 279 0.0 2.0 0.00 0.00 0.00 62 1011.9
20260502025018 46 224 0.0 1.0 0.00 0.00 0.00 58 1011.8
20260502024019 47 322 1.0 2.0 0.00 0.00 0.00 58 1011.9
20260502023039 47 213 0.0 2.0 0.00 0.00 0.00 55 1011.9
20260502022020 48 231 1.0 2.0 0.00 0.00 0.00 54 1012.0
20260502021020 48 250 1.0 3.0 0.00 0.00 0.00 54 1012.0
20260502020019 48 322 1.0 2.0 0.00 0.00 0.00 53 1012.0
20260502015020 48 236 1.0 3.0 0.00 0.00 0.00 53 1012.0
20260502014019 48 296 1.0 3.0 0.00 0.00 0.00 52 1012.0